ISS (ZARYA), 25544

Orbit data source: Space-Track

The International Space Station (ISS) is a collaborative project involving NASA, Roscosmos, ESA, JAXA, and CSA. It is the largest human-made structure in low Earth orbit (LEO). It serves as a microgravity laboratory where scientific research is conducted in various fields, such as astrobiology, astronomy, meteorology, and physics. Astronauts have continuously inhabited the ISS since Nov 2000, and the space station supports testing spacecraft systems and equipment needed for long-duration missions to the Moon and Mars.

Loading next visibility...
Identifier
25544, 1998-067A
Orbit
LEO
Last TLE update
14 hours ago
Origin
Manufacturer
Khrunichev
Mission
Operational Civil Spaceship
Bus & Motor
77KS, Unknown motor
Mass
20,351 kg wet, ~19,000 kg dry
Launch date (UTC)
1998-11-20 (27 years ago)
Launch vehicle
PROTON-K
Launch site
Tyuratam Missile And Space Complex (TTMTR)
Object type
Payload
Rocket body
Debris
Shape & HBR
Cyl + 2 Pan, 109 m
Radar Cross Section
160.273 m², Large (>1 m²)

Expand to show TLE details & history

TLE from 14 hours ago
0 ISS (ZARYA)
1 25544U 98067A   25166.90950966  .00008572  00000-0  15677-3 0  9995
2 25544  51.6368 313.4089 0001513 253.5073 106.5750 15.50222697514962
Epoch: 2025-06-15T21:49Z
TLE epoch observation values (Epoch: 2025-06-15T21:49:41.634Z)
Latitude
-0.00001°
Longitude
81.55757°
Altitude
417.11 km
Speed
7.662 km/s
True Right ascension
20h 53m 38s
True Declination
0° 00' 00"
Sunlit
Object was in full shadow at epoch
Visualization orbit readout
Latitude
45.78759°
Longitude
-155.42663°
Altitude
421.537 km
Speed
7.664 km/s
Apparent Right ascension
08h 03m 19s
Apparent Declination
6° 21' 59"
Sunlit
Object is in daylight
Visualization observer readout
Local Sidereal Time
22:54:11
Azimuth
50.611° ENE
Elevation
-29.267°
Doppler factor
1
Orbital elements
Apogee altitude
417.612 km
Perigee altitude
415.556 km
Semi-major axis
6,794.721 km
Eccentricity
0.00015
Inclination
51.6368°
RAAN
313.4089°
Arg. of periapsis
253.5073°
True anomaly
Unknown
Mean anomaly
106.575°
Eccentric anomaly
Unknown
Mean motion
3.87513 °/min
Orbital period
92.9 mins
BSTAR
0.00015677
Loading maneuver chart data...
Loading SW <> Apogee altitude chart data...

ISS (ZARYA) Visibility forecast

Observer location: undefined°, undefined°

Span
Click to sort rows by Start time (UTC) header in descending order
Start Az.
Max El. time (UTC)
Max El. Az.
Max El.
End time (UTC)
End Az.
5 mins2025-06-16 13:31:35.170Z267.79° W2025-06-16 13:33:35.170Z310.235° NW28.076°2025-06-16 13:36:35.170Z33.632° NE
4 mins2025-06-16 18:25:35.170Z342.154° N2025-06-16 18:26:35.170Z14.783° NNE30.132°2025-06-16 18:29:35.170Z96.488° ESE
|